This is the latest recevied weather packets stored in our database for station/object KD9IXX-13. If no packets are shown the sender has not sent any weather packets the latest 10 day(s).
| Time | Temp. | Humidity | Pressure | Rain* | Wind** | Luminosity | Snow |
|---|---|---|---|---|---|---|---|
| 1787745602 | 18.89° C | 92% | 1015.9 hPa | 0 mm | - | 35 W/m² | - |
| 1787745002 | 18.89° C | 92% | 1015.8 hPa | 0 mm | - | 16 W/m² | - |
| 1787744102 | 18.89° C | 92% | 1016 hPa | 0 mm | - | 6 W/m² | - |
| 1787743202 | 18.89° C | 93% | 1016 hPa | 0 mm | - | 3 W/m² | - |
| 1787742902 | 18.33° C | 93% | 1016.1 hPa | 0 mm | - | 1 W/m² | - |
| 1787742601 | 18.33° C | 93% | 1016 hPa | 0 mm | - | 0 W/m² | - |
| 1787741702 | 18.33° C | 93% | 1016.1 hPa | 0 mm | - | 0 W/m² | - |
| 1787741402 | 18.33° C | 93% | 1016.2 hPa | 0 mm | - | 0 W/m² | - |
| 1787741102 | 18.33° C | 93% | 1016.2 hPa | 0 mm | - | 0 W/m² | - |
| 1787740202 | 18.89° C | 92% | 1016.4 hPa | 0 mm | - | 0 W/m² | - |
| 1787739002 | 18.89° C | 93% | 1016.4 hPa | 0 mm | - | 0 W/m² | - |
| 1787737802 | 18.89° C | 92% | 1016.4 hPa | 0 mm | - | 0 W/m² | - |
| 1787737202 | 18.89° C | 92% | 1016.6 hPa | 0 mm | - | 0 W/m² | - |
| 1787736902 | 18.33° C | 92% | 1016.5 hPa | 0 mm | - | 0 W/m² | - |
| 1787736003 | 18.33° C | 93% | 1016.8 hPa | 0 mm | - | 0 W/m² | - |
| 1787735702 | 18.33° C | 94% | 1016.9 hPa | 0 mm | - | 0 W/m² | - |
| 1787735102 | 18.33° C | 94% | 1016.9 hPa | 0 mm | - | 0 W/m² | - |
| 1787734502 | 18.33° C | 93% | 1016.7 hPa | 0 mm | - | 0 W/m² | - |
| 1787733603 | 18.33° C | 92% | 1016.9 hPa | 0 mm | - | 0 W/m² | - |
| 1787733002 | 18.33° C | 92% | 1016.9 hPa | 0 mm | - | 0 W/m² | - |
| 1787732402 | 18.33° C | 92% | 1017 hPa | 0 mm | - | 0 W/m² | - |
| 1787732102 | 18.33° C | 92% | 1017 hPa | 0 mm | - | 0 W/m² | - |
| 1787731502 | 18.89° C | 91% | 1017.1 hPa | 0 mm | - | 0 W/m² | - |
| 1787730602 | 18.89° C | 92% | 1017.4 hPa | 0 mm | - | 0 W/m² | - |
| 1787730002 | 18.89° C | 92% | 1017.3 hPa | 0 mm | - | 0 W/m² | - |
* Rain latest hour (hover to see other rain measurements)
** Current wind speed in m/s (hover to see current wind gust speed)